Regional Weather Roundup
Issued by NWS

Home | Current Version | Previous Version | Text Only | Print | Product List | Glossary Off
Versions: 1 2 3 4 5 6 7 8 9 10 11 12 13 14 15 16 17 18 19 20 21 22 23 24 25 26 27 28 29 30 31 32 33 34 35 36 37 38 39 40 41 42 43 44 45 46 47 48 49 50

000
ASUS43 KLMK 282210
RWRKY
KENTUCKY REGIONAL WEATHER ROUNDUP
NATIONAL WEATHER SERVICE LOUISVILLE KY
600 PM EDT THU APR 28 2016

NOTE "FAIR" INDICATES FEW OR NO CLOUDS BELOW 12,000 FEET
WITH NO SIGNIFICANT WEATHER AND/OR OBSTRUCTIONS TO VISIBILITY.

KYZ001>023-026-027-061>063-070>075-282300-
WESTERN AND SOUTH CENTRAL KENTUCKY

CITY           SKY/WX    TMP DP  RH WIND       PRES   REMARKS
PADUCAH        SUNNY     77  49  37 W8        29.90S
HENDERSON      SUNNY     77  50  38 SW16      29.87S
OWENSBORO      SUNNY     78  57  48 W12G18    29.88S
HOPKINSVILLE   SUNNY     79  51  37 W15       29.90R
BOWLING GREEN  SUNNY     80  53  39 W15G24    29.89R
GLASGOW        PTSUNNY   78  57  47 SW15G24   29.89R
$$

KYZ024-025-028>034-038-045-046-053-282300-
NORTH CENTRAL KENTUCKY

CITY           SKY/WX    TMP DP  RH WIND       PRES   REMARKS
LOUISVILLE/SDF MOSUNNY   78  46  32 W21G28    29.86R
LOUISVILLE/LOU SUNNY     77  46  33 W20G28    29.86R
FORT KNOX      SUNNY     75  48  38 W18G25    29.86R
$$

KYZ035>037-039>044-047>052-055>060-089>105-282300-
NORTHEAST KENTUCKY

CITY           SKY/WX    TMP DP  RH WIND       PRES   REMARKS
LEXINGTON      MOSUNNY   78  54  43 W20G29    29.85R
COVINGTON      MOSUNNY   73  60  63 W8        29.82S
FRANKFORT      MOSUNNY   79  52  38 SW14G24   29.83R
$$

KYZ054-064>069-076>088-106>120-282300-
SOUTHEAST KENTUCKY

CITY           SKY/WX    TMP DP  RH WIND       PRES   REMARKS
JACKSON        LGT RAIN  66  59  78 SW5G23    29.89R
LONDON         CLOUDY    74  59  59 W6        29.88F
SOMERSET       SUNNY     73  59  60 W13       29.90R
MIDDLESBORO    PTSUNNY   79  58  48 S7        29.88R
MONTICELLO     PTCLDY    79  58  48 W21       29.90R
$$




USA.gov is the U.S. government's official web portal to all federal, state and local government web resources and services.